User: anonymous   Login
Location: Unspecified
(0.0000°N, 0.0000°E)
Time: 11:22:03
(UTC+02:00)
Language:

YAOGAN 3 - Orbit

View from above orbital plane
View from above orbital plane
View from above satellite
View from above satellite

Ground track
Ground track

The orbit data is extracted from the following two-line orbital elements,

1 32289U 07055A   17083.91128197 +.00000437 +00000-0 +63536-4 0  9999
2 32289 097.9992 086.0698 0001199 097.4995 262.6372 14.80795717506267
Epoch (UTC): 24 March 2017 21:52:14
Eccentricity: 0.0001199
inclination: 97.9992°
perigee height: 626 km
apogee height: 627 km
right ascension of ascending node: 86.0698°
argument of perigee: 97.4995°
revolutions per day: 14.80795717
mean anomaly at epoch: 262.6372°
orbit number at epoch: 50626

The dashed part of the orbit path shows where the satellite is in the earth's shadow,  

DLR